Location: Aalen
(48.8330°N, 10.1000°E)
Time: 18:57:39
(UTC+02:00)

S-56A Canister/Altair - Pass Details

Date: 04 August 2021
Orbit: 632 x 2500 km, 38.9° (Epoch: 19 September)

Event Time Altitude Azimuth Distance (km) Brightness Sun altitude
Rises 21:41:50 0° 281° (W) 6,166 13.5 -7.6°
Reaches altitude 10° 21:47:02 10° 269° (W) 5,163 12.6 -8.3°
Maximum altitude 21:57:21 23° 226° (SW) 3,937 11.2 -9.6°
Drops below altitude 10° 22:06:30 10° 180° (S) 4,491 11.0 -10.7°
Enters shadow 22:09:50 - 169° (S) 5,051 11.2 -11.1°
Sets 22:10:40 0° 167° (SSE) 5,210 - -11.2°
